Regional Weather Roundup
Issued by NWS

Home | Current Version | Previous Version | Text Only | Print | Product List | Glossary Off
Versions: 1 2 3 4 5 6 7 8 9 10 11 12 13 14 15 16 17 18 19 20 21 22 23 24 25 26 27 28 29 30 31 32 33 34 35 36 37 38 39 40 41 42 43 44 45 46 47 48 49 50

000
ASUS43 KLSX 282359
RWRMO

WEATHER SUMMARY FOR MISSOURI
NATIONAL WEATHER SERVICE SPRINGFIELD MO
600 PM CST WED JAN 28 2015

NOTE: "FAIR" INDICATES FEW OR NO CLOUDS BELOW 12,000 FEET WITH NO
       SIGNIFICANT WEATHER AND/OR OBSTRUCTIONS TO VISIBILITY.
       CURRENT SKY AND/OR WEATHER CONDITIONS ARE NOT AVAILABLE FOR
       CHILLICOTHE AND FARMINGTON.

MOZ001>031-035>038-043-044-053-054-290100-
...NORTHERN AND WESTERN MISSOURI...

CITY           SKY/WX    TMP DP  RH WIND       PRES   REMARKS
KANSAS CTY INT MOCLDY    66  39  37 SW13      29.69R
6HR MIN TEMP:  66; 6HR MAX TEMP:  73;

LEE`S SUMMIT   MOCLDY    69  37  30 S15G24    29.71S
6HR MIN TEMP:  64; 6HR MAX TEMP:  73;

ST JOSEPH      MOCLDY    65  39  38 W12       29.68R
6HR MIN TEMP:  63; 6HR MAX TEMP:  73;

CHILLICOTHE      N/A     62  41  46 S12       29.69F
6HR MIN TEMP:  54; 6HR MAX TEMP:  66;


$$
MOZ066>068-077>081-088>096-101>105-290100-
...SOUTHWEST MISSOURI...

CITY           SKY/WX    TMP DP  RH WIND       PRES   REMARKS
SPRINGFIELD    MOCLDY    63  38  39 S14       29.86F
6HR MIN TEMP:  57; 6HR MAX TEMP:  68;

JOPLIN         MOCLDY    67  39  35 S23G30    29.82F
6HR MIN TEMP:  67; 6HR MAX TEMP:  76;


$$
MOZ032>034-039>042-045>050-055>058-069>072-290100-
...CENTRAL MISSOURI...

CITY           SKY/WX    TMP DP  RH WIND       PRES   REMARKS
COLUMBIA       NOT AVBL
JEFFERSON CITY MOCLDY    56  35  45 SE14      29.83F
6HR MIN TEMP:  51; 6HR MAX TEMP:  62;

ROLLA          MOCLDY    50  33  52 S14       29.89S
6HR MIN TEMP:  48; 6HR MAX TEMP:  56;

SEDALIA        MOCLDY    61  38  42 S17       29.77S
6HR MIN TEMP:  61; 6HR MAX TEMP:  69; 6HR PCP: TRACE;


$$
MOZ051-052-059>065-290100-
...EAST CENTRAL MISSOURI...

CITY           SKY/WX    TMP DP  RH WIND       PRES   REMARKS
ST LOUIS INTL  MOCLDY    47  32  56 SE14G22   29.95F
6HR MIN TEMP:  43; 6HR MAX TEMP:  50;


$$
MOZ072>076-082>087-097>100-106>115-290100-
...SOUTH CENTRAL AND SOUTHEAST MISSOURI...

CITY           SKY/WX    TMP DP  RH WIND       PRES   REMARKS
CAPE GIRARDEAU CLEAR     43  34  70 SE9       30.06F
6HR MIN TEMP:  41; 6HR MAX TEMP:  47;

POPLAR BLUFF   CLEAR     45  35  68 SE8       30.05F
6HR MIN TEMP:  42; 6HR MAX TEMP:  50;

WEST PLAINS    MOCLDY    49  33  54 S12       30.00R
6HR MIN TEMP:  46; 6HR MAX TEMP:  55;


$$


USA.gov is the U.S. government's official web portal to all federal, state and local government web resources and services.